Location: Unspecified
(33.9239°N, 118.0544°W)
Time: 06:53:10
(UTC-07:00)

Cosmos 2058 - Visible Passes

Search period start: 01 August 2014 00:00
Search period end: 11 August 2014 00:00
Orbit: 572 x 593 km, 82.5° (Epoch: 01 August)

Date Brightness Start Highest point End Pass type
(mag) Time Alt. Az. Time Alt. Az. Time Alt. Az.
01 Aug 5.2 02:45:43 10° NNE 02:48:31 21° ENE 02:48:31 21° ENE visible
01 Aug 4.5 04:22:38 10° NW 04:24:52 20° WNW 04:24:52 20° WNW visible
02 Aug 4.9 02:51:10 10° NNE 02:53:48 26° NE 02:53:48 26° NE visible
02 Aug 5.1 04:29:11 10° NW 04:30:09 13° WNW 04:30:09 13° WNW visible
03 Aug 4.8 02:56:47 10° N 02:59:08 29° NNE 02:59:08 29° NNE visible
04 Aug 4.8 03:02:31 10° N 03:04:30 27° N 03:04:30 27° N visible
05 Aug 5.0 03:08:22 10° N 03:09:54 22° N 03:09:54 22° N visible
06 Aug 5.3 03:14:19 10° NNW 03:15:20 17° NNW 03:15:20 17° NNW visible
07 Aug 5.6 03:20:24 10° NNW 03:20:47 12° NNW 03:20:47 12° NNW visible
08 Aug 6.2 01:49:52 10° NNE 01:49:54 10° NNE 01:49:54 10° NNE visible
09 Aug 6.2 01:55:15 10° NNE 01:55:24 11° NNE 01:55:24 11° NNE visible
10 Aug 6.2 02:00:50 10° N 02:00:56 11° N 02:00:56 11° N visible
